Simultaneous Nadir Overpasses (SNOs) Predictions

Prediction of SNOs between FY3D and METOP-C Satellite Orbit:

Table of predicted SNOs for the next 14.0 days since TLE Epoch: 1/22/2023
Index Date (FY3D) Time (FY3D) Lat,Lon (FY3D) SZA (FY3D ) Date (METOP-C) Time (METOP-C) Lat,Lon (METOP-C) SZA (METOP-C ) Distance(km) Time Diff (sec)
1 02/02/2023 06:39:26 75.16, 74.22 92.13 02/02/2023 06:40:31 75.12, 77.49 91.98 93.36 65
2 02/02/2023 07:30:08 -74.98,-117.95 88.08 02/02/2023 07:31:17 -74.93,-115.72 88.21 64.55 69
3 02/02/2023 08:20:50 74.80, 49.90 91.71 02/02/2023 08:22:01 74.72, 51.02 91.59 33.86 71
4 02/02/2023 09:11:32 -74.62,-142.30 88.50 02/02/2023 09:12:46 -74.58,-142.03 88.56 9.14 74
5 02/02/2023 10:02:16 74.52, 25.27 91.40 02/02/2023 10:03:26 74.55, 25.24 91.41 3.22 70
6 02/02/2023 10:53:02 -74.54,-167.46 88.60 02/02/2023 10:54:08 -74.56,-167.42 88.59 2.33 66
7 02/02/2023 11:43:48 74.54, -0.16 91.39 02/02/2023 11:44:48 74.53, -0.15 91.38 0.93 60
8 02/02/2023 12:34:34 -74.56, 167.11 88.60 02/02/2023 12:35:30 -74.54, 167.19 88.63 3.04 56
9 02/02/2023 13:25:19 74.51, -25.45 91.34 02/02/2023 13:26:10 74.51, -25.54 91.34 2.67 51
10 02/02/2023 14:16:05 -74.53, 141.81 88.66 02/02/2023 14:16:52 -74.52, 141.80 88.67 0.63 47
11 02/02/2023 15:06:51 74.53, -50.88 91.34 02/02/2023 15:07:31 74.54, -50.80 91.35 3.00 40
12 02/02/2023 15:57:36 -74.49, 116.52 88.71 02/02/2023 15:58:14 -74.50, 116.41 88.71 3.21 38
13 02/02/2023 16:48:22 74.50, -76.18 91.28 02/02/2023 16:48:53 74.53, -76.19 91.31 3.31 31
14 02/02/2023 17:39:08 -74.51, 91.09 88.71 02/02/2023 17:39:35 -74.53, 91.15 88.70 3.01 27
15 02/02/2023 18:29:54 74.51,-101.61 91.28 02/02/2023 18:30:15 74.51,-101.58 91.27 1.00 21
16 02/02/2023 19:20:40 -74.53, 65.66 88.72 02/02/2023 19:20:57 -74.51, 65.76 88.74 3.40 17
17 02/02/2023 20:11:25 74.48,-126.90 91.23 02/02/2023 20:11:37 74.49,-126.97 91.24 2.15 12
18 02/02/2023 21:02:11 -74.50, 40.36 88.77 02/02/2023 21:02:19 -74.50, 40.37 88.77 0.35 8
19 02/02/2023 21:52:57 74.50,-152.33 91.23 02/02/2023 21:52:59 74.47,-152.36 91.20 3.44 2
20 02/02/2023 22:43:41 -74.47, 15.07 88.82 02/02/2023 22:43:40 -74.48, 14.99 88.81 2.70 1
21 02/02/2023 23:34:27 74.47,-177.63 91.17 02/02/2023 23:34:19 74.50,-177.62 91.20 3.49 8
22 02/03/2023 00:25:13 -74.48, -10.36 88.83 02/03/2023 00:25:02 -74.46, -10.40 88.85 2.99 11
23 02/03/2023 01:15:59 74.49, 156.95 91.17 02/03/2023 01:15:41 74.48, 156.99 91.17 1.40 18
24 02/03/2023 02:06:45 -74.50, -35.79 88.83 02/03/2023 02:06:23 -74.49, -35.66 88.84 3.90 22
25 02/03/2023 02:57:30 74.45, 131.65 91.12 02/03/2023 02:57:03 74.46, 131.60 91.13 1.67 27
26 02/03/2023 03:48:16 -74.47, -61.08 88.88 02/03/2023 03:47:45 -74.47, -61.05 88.88 1.00 31
27 02/03/2023 04:39:02 74.47, 106.22 91.11 02/03/2023 04:38:25 74.44, 106.21 91.09 3.17 37
28 02/03/2023 05:29:47 -74.44, -86.38 88.94 02/03/2023 05:29:07 -74.45, -86.44 88.92 2.30 40
29 02/03/2023 06:20:33 74.44, 80.92 91.06 02/03/2023 06:19:47 74.42, 80.82 91.05 3.52 46
30 02/03/2023 07:11:19 -74.46,-111.81 88.94 02/03/2023 07:10:29 -74.43,-111.83 88.95 2.49 50
31 02/03/2023 08:02:05 74.46, 55.50 91.06 02/03/2023 08:01:08 74.45, 55.56 91.06 1.95 57
32 02/03/2023 08:52:50 -74.43,-137.11 88.99 02/03/2023 08:51:51 -74.42,-137.22 88.99 3.41 59
33 02/03/2023 09:43:36 74.43, 30.20 91.00 02/03/2023 09:42:30 74.44, 30.17 91.02 1.29 66
34 02/03/2023 10:34:22 -74.44,-162.53 88.99 02/03/2023 10:33:12 -74.45,-162.48 88.98 1.74 70
35 02/03/2023 11:25:07 74.40, 4.90 90.95 02/03/2023 11:23:53 74.37, 4.66 90.94 7.96 74
36 02/03/2023 12:15:50 -74.27, 172.55 89.21 02/03/2023 12:14:37 -74.28, 171.76 89.15 23.95 73
37 02/03/2023 13:06:31 74.02, -19.52 90.53 02/03/2023 13:05:22 74.00, -21.60 90.59 63.78 69
38 02/03/2023 13:57:14 -73.89, 148.11 89.63 02/03/2023 13:56:07 -73.87, 145.40 89.54 83.85 67



Historial Predications of SNOs between FY3D and METOP-C
